Погода в Йилове-у-Праги

Чехия     49°53′42″N   14°29′35″E
темп.,
°C
ветер,
м/с
пор.,
м/с
влажн.,
%
обл.,
%
осадки,
мм/ч
давл.,
гПа
погр.,
м
24 июля, сб
сб2423:00+20юв246499 0.0 1015133
02:00+18ююв246458 0.0 1014121
05:00+17юв126734 0.0 101454
08:00+19вюв13595 0.0 1014254
11:00+25юв454465 0.0 10131383
14:00+27ююв44365 0.0 10122217
17:00+27юв343775 0.0 10122175
20:00+23вюв385335 0.0 1010278
25 июля, вс
вс2523:00+21в2756100 0.0 1011183
02:00+19юв1168100 0.4 101027
05:00+17ю1185100 0.8 101019
08:00+18зюз2486100 1.1 1011161
11:00+19св238164 0.6 1012316
14:00+23всв446452 0.6 1011975
17:00+22всв4467100 0.0 1011812
20:00+20ссв2474100 0.0 1011312
26 июля, пн
пн2623:00+18зюз1181100 0.0 101119
02:00+17юз118697 0.0 101220
05:00+16юз2289100 0.0 101244
08:00+19зюз127688 0.0 1013235
11:00+25юз115698 0.0 1013846
14:00+28юз124598 0.0 10121754
17:00+23зюз6770100 0.9 1012518
20:00+19ссв2385100 5.4 1014211
27 июля, вт
вт2723:00+19вюв01898 0.0 101576
02:00+17юз1190100 0.0 101521
05:00+16ююз11905 0.0 101519
08:00+19ююз1279100 0.0 1016213
11:00+24сз22605 0.0 1015799
14:00+27св114792 0.0 10141399
17:00+27в2248100 0.0 10131504
20:00+18з2585100 2.1 1013254
28 июля, ср
ср2823:00+17зсз129699 20.3 1014146
02:00+17зюз2495100 20.5 1014139
05:00+16зюз310911 0.0 1014263
08:00+18зюз36795 0.0 1014317
11:00+23зюз35587 0.0 1013878
14:00+26з574685 0.0 10131666
17:00+26зюз584911 0.0 10131555
20:00+22зюз48650 0.0 1014615